User: anonymous   Login
Location: Unspecified
(0.0000°N, 0.0000°E)
Time: 00:10:32
(UTC+00:00)
Language:

HO-68 - Orbit

View from above orbital plane
View from above orbital plane
View from above satellite
View from above satellite

Ground track
Ground track

The orbit data is extracted from the following two-line orbital elements,

1 36122U 09072B   15185.42069581 -.00000059  00000-0 -43517-4 0  9997
2 36122 100.1932 229.6118 0008158 079.8525 280.3508 13.16327900266720
Epoch (UTC): 04 July 2015 10:05:48
Eccentricity: 0.0008158
inclination: 100.1932°
perigee height: 1192 km
apogee height: 1205 km
right ascension of ascending node: 229.6118°
argument of perigee: 79.8525°
revolutions per day: 13.16327900
mean anomaly at epoch: 280.3508°
orbit number at epoch: 26672

The dashed part of the orbit path shows where the satellite is in the earth's shadow,  

DLR